This demonstration page uses our WeatherBlox Daily Observations layout. Learn more.

Left ArrowRight Arrow

Hourly Observations for September 26, 2022

Temp ( °F °C ) Dew Point ( °F °C ) Humidity (%) Winds ( mph kmh ) Pressure ( in mb ) Visibility ( mi km ) Precip ( " mm )
12:53 am 00:53 Mostly Clear 56 13.3 46 7.8 69 69 WNW 3 6 30.12 1020 10 16 0.00 0.00
1:53 am 01:53 Mostly Clear 58 14.4 46 7.8 65 65 NW 5 7 30.11 1020 10 16 0.00 0.00
2:53 am 02:53 Mostly Clear 55 12.8 46 7.8 72 72 VRB 6 9 30.12 1020 10 16 0.00 0.00
3:53 am 03:53 Clear 56 13.3 46 7.8 69 69 NNW 7 11 30.12 1020 10 16 0.00 0.00
4:53 am 04:53 Mostly Clear 55 12.8 46 7.8 72 72 NNW 8 13 30.13 1020 10 16 0.00 0.00
5:53 am 05:53 Mostly Clear 54 12.2 45 7.2 71 71 NNW 8 13 30.14 1021 10 16 0.00 0.00
6:53 am 06:53 Mostly Clear 55 12.8 45 7.2 69 69 N 6 9 30.15 1021 10 16 0.00 0.00
7:53 am 07:53 Sunny 55 12.8 45 7.2 69 69 N 7 11 30.17 1022 10 16 0.00 0.00
8:53 am 08:53 Sunny 61 16.1 46 7.8 58 58 NE 6 9 30.19 1022 10 16 0.00 0.00
9:53 am 09:53 Sunny 66 18.9 43 6.1 43 43 VRB 3 6 30.20 1023 10 16 0.00 0.00
10:53 am 10:53 Sunny 71 21.7 40 4.4 32 32 N 5 7 30.21 1023 10 16 0.00 0.00
11:53 am 11:53 Sunny 75 23.9 37 2.8 25 25 N 5 7 30.20 1023 10 16 0.00 0.00
12:53 pm 12:53 Mostly Sunny 78 25.6 36 2.2 22 22 Calm 30.18 1022 10 16 0.00 0.00
1:53 pm 13:53 Mostly Sunny 78 25.6 38 3.3 24 24 NW 6 9 30.16 1021 10 16 0.00 0.00
2:53 pm 14:53 Mostly Cloudy 81 27.2 39 3.9 22 22 NW 5 7 30.11 1020 10 16 0.00 0.00
3:53 pm 15:53 Mostly Cloudy 82 27.8 39 3.9 22 22 VRB 3 6 30.10 1019 10 16 0.00 0.00
4:53 pm 16:53 Partly Cloudy 82 27.8 39 3.9 22 22 NW 6 9 30.08 1019 10 16 0.00 0.00
5:53 pm 17:53 Mostly Sunny 82 27.8 39 3.9 22 22 NNW 3 6 30.06 1018 10 16 0.00 0.00
6:53 pm 18:53 Mostly Sunny 80 26.7 40 4.4 24 24 Calm 30.06 1018 10 16 0.00 0.00
7:53 pm 19:53 Mostly Clear 72 22.2 43 6.1 35 35 Calm 30.06 1018 10 16 0.00 0.00
8:53 pm 20:53 Clear 70 21.1 44 6.7 39 39 ESE 6 9 30.07 1018 10 16 0.00 0.00
9:53 pm 21:53 Clear 68 20 43 6.1 40 40 E 8 13 30.08 1019 10 16 0.00 0.00
10:53 pm 22:53 Clear 67 19.4 41 5 39 39 ESE 10 17 30.08 1019 10 16 0.00 0.00
11:53 pm 23:53 Clear 65 18.3 41 5 41 41 ESE 9 15 30.08 1019 10 16 0.00 0.00

Powered by AerisWeather